[Iaude] MPEC M104: 2024 MW [a=2.18,e=0.60,i=5.2,H=29.3]
    mpec at cfa.harvard.edu 
    mpec at cfa.harvard.edu
       
    Fri Jun 28 07:17:41 EDT 2024
    
    
  
M.P.E.C. 2024-M104                                Issued 2024 June 28, 11:16 UT
     The Minor Planet Electronic Circulars contain information on unusual
         minor planets, routine data on comets and natural satellites,
         and occasional editorial announcements.  They are published
    on behalf of Division F of the International Astronomical Union by the
          Minor Planet Center, Smithsonian Astrophysical Observatory,
                          Cambridge, MA 02138, U.S.A.
			  
             Prepared using the Tamkin Foundation Computer Network
                              MPC at CFA.HARVARD.EDU
            URL https://www.minorplanetcenter.net/    ISSN 1523-6714
                                    2024 MW                                     
Observations:
     K24M00W* C2024 06 27.42414617 14 27.281-09 10 23.99         18.71oVEM104T05
     K24M00W  C2024 06 27.42769117 14 30.818-09 10 27.95         18.89oVEM104T05
     K24M00W  C2024 06 27.43311617 14 36.048-09 10 31.15         18.80oVEM104T05
     K24M00W  C2024 06 27.44666817 14 49.848-09 10 42.56         18.93oVEM104T05
     K24M00W KC2024 06 27.89294 17 40 00.31 -09 41 00.6          16.7 GXEM104K83
     K24M00W KC2024 06 27.89551 17 40 15.76 -09 41 15.6          17.8 GXEM104K83
     K24M00W KC2024 06 27.89811 17 40 31.65 -09 41 32.2          17.9 GXEM104K83
     K24M00W KB2024 06 27.91425 17 42 06.59 -09 44 22.2          18.1 RZEM104106
     K24M00W KB2024 06 27.91485 17 42 10.62 -09 44 25.9                ZEM104106
     K24M00W KB2024 06 27.91546 17 42 14.60 -09 44 30.0          18.9 RZEM104106
     K24M00W KB2024 06 27.91606 17 42 18.59 -09 44 33.9                ZEM104106
     K24M00W KC2024 06 27.95818 17 47 42.31 -09 48 18.0          17.2 GVEM104104
     K24M00W KC2024 06 27.95937617 48 24.048-09 52 14.84         17.4 GVEM104J95
     K24M00W KC2024 06 27.96022917 48 31.426-09 52 21.40         17.2 GVEM104J95
     K24M00W KC2024 06 27.96258 17 48 19.61 -09 48 48.7          17.0 GVEM104104
     K24M00W KC2024 06 27.96273517 48 53.366-09 52 41.63         16.8 GVEM104J95
     K24M00W KC2024 06 27.96316817 48 30.15 -09 49 44.0          16.9 GVEM104203
     K24M00W KC2024 06 27.96355817 49 00.600-09 52 48.54         17.0 GVEM104J95
     K24M00W KC2024 06 27.96464017 48 42.93 -09 49 54.4          17.0 GVEM104203
     K24M00W KC2024 06 27.96619117 49 21.408-09 53 12.41         17.1 GVEM104Z80
     K24M00W KC2024 06 27.96633617 48 57.78 -09 50 07.0          16.9 GVEM104203
     K24M00W KC2024 06 27.96969517 49 27.65 -09 50 31.0          17.2 GVEM104203
     K24M00W KC2024 06 27.97034017 49 59.093-09 53 46.32         16.3 GVEM104Z80
     K24M00W KC2024 06 27.97831417 50 47.87 -09 51 45.9                VEM104204
     K24M00W KC2024 06 27.98072517 51 10.85 -09 52 04.4                VEM104204
     K24M00W KC2024 06 27.98310417 51 33.87 -09 52 22.0          16.5 GVEM104204
     K24M00W KC2024 06 27.98547017 51 57.09 -09 52 39.7                VEM104204
     K24M00W KC2024 06 28.04580018 04 49.483-10 04 51.02         16.5 GVEM104J95
     K24M00W KB2024 06 28.04642718 07 47.909-08 48 20.55         17.3 VZEM104Y05
     K24M00W KB2024 06 28.04751718 08 04.647-08 48 14.79         17.0 VZEM104Y05
     K24M00W KC2024 06 28.04770918 05 18.401-10 05 09.06         16.4 GVEM104J95
     K24M00W KB2024 06 28.04857618 08 21.048-08 48 08.96         16.9 VZEM104Y05
     K24M00W KC2024 06 28.05086918 06 07.253-10 05 38.15         16.8 GVEM104J95
     K24M00W KC2024 06 28.05396618 06 56.251-10 06 07.63         16.7 GVEM104J95
     K24M00W KC2024 06 28.08962918 22 38.43 -10 02 28.7          16.4 GVEM104932
     K24M00W KC2024 06 28.09113118 23 12.33 -10 02 43.6          16.0 GVEM104932
     K24M00W KC2024 06 28.09398318 24 17.96 -10 03 12.8          15.9 GVEM104932
     K24M00W KC2024 06 28.09531918 24 49.20 -10 03 26.3          16.5 GVEM104932
     K24M00W KC2024 06 28.09853518 26 05.97 -10 03 58.0          15.8 GVEM104932
     K24M00W KC2024 06 28.10320218 28 01.18 -10 04 43.0          16.7 GVEM104932
     K24M00W KC2024 06 28.10697118 29 37.74 -10 05 19.2          15.8 GVEM104932
Observer details:
104 San Marcello Pistoiese.  Observers P. Bacci, M. Maestripieri.  Measurer P.
    Bacci.  0.60-m f/4 reflector + CCD.
106 Crni Vrh.  Observer H. Mikuz.  0.60-m f/3.3 reflector + CMO.
203 GiaGa Observatory.  Observer G. Galli.  0.36-m f/5.76 Schmidt-Cassegrain +
    CCD.
204 Schiaparelli Observatory.  Observer L. Buzzi.  0.84-m f/3.5 reflector +
    CMO.
932 John J. McCarthy Obs., New Milford.  Observer J. Gebauer.  Measurers W.
    Cloutier, M. Robson.  0.43 -m f/6.8 reflector+CCD.
J95 Great Shefford.  Observer P. Birtwhistle.  0.41-m f/6.3 Schmidt-Cassegrain
    + CCD.
K83 Beppe Forti Astronomical Observatory, Montelupo.  Observers M. Tombelli,
    M. Iozzi, F. Cheli, M. Lombardo, L. Bartolini, S. Bartolini.  Measurers M.
    Tombelli, F. Bernardi, A. Squilloni, F. Cheli.  0.40-m f/8 Ritchey-
    Chretien + CCD.
T05 ATLAS-HKO, Haleakala.  Observers L. Denneau, R. Siverd, J. Tonry, H.
    Weiland.  Measurers L. Denneau, N. Erasmus, A. Fitzsimmons, J. Robinson,
    R. Siverd, J. Tonry, H. Weiland.  0.5-m Reflector + CCD.
Y05 SONEAR Wykrota-CEAMIG, Serra da Piedade.  Observers C. Jacques, A.
    Caetano, E. Pimentel.  Measurer C. Jacques.  0.45-m f/2.9 reflector + CMO.
Z80 Northolt Branch Observatory.  Observer G. Wells.  0.25-m f/8.0 Ritchey-
    Chretien + CCD.
Orbital elements:
2024 MW                                                  Earth MOID = 0.0000 AU
Epoch 2024 Mar. 31.0 TT = JDT 2460400.5                 Veres                   
M 321.16638              (2000.0)            P               Q                  
n   0.30685486     Peri.  231.01140     +0.84370382     +0.52929041             
a   2.1769446      Node    96.85906     -0.46041603     +0.79925465             
e   0.5978828      Incl.    5.17366     -0.27600894     +0.28468169             
P   3.21           H   29.34          G   0.15           U   6                  
Residuals in seconds of arc
240627 T05  0.6-  0.1-    240627 104  0.4-  0.3+    240628 Y05  0.3-  0.2+
240627 T05  0.9+  0.9-    240627 J95  0.3+  0.1+    240628 Y05  0.5-  0.1+
240627 T05  0.5-  0.5+    240627 203  0.3+  0.1-    240628 J95  0.5-  0.2-
240627 T05  0.4+  0.0     240627 J95  0.2-  0.2-    240628 Y05  0.5-  0.1+
240627 K83  0.2+  0.7-    240627 203  0.2+  0.1+    240628 J95  0.0   0.3+
240627 K83  0.5-  0.3+    240627 Z80  0.1+  0.0     240628 J95  0.2+  0.1-
240627 K83  0.2-  0.0     240627 203  0.0   0.2-    240628 932  0.4+  0.4-
240627 106  0.7+  0.3-    240627 203  0.1-  0.2+    240628 932  0.0   0.0
240627 106  1.3+  0.1-    240627 Z80  0.4+  0.1-    240628 932  0.3+  0.4-
240627 106  0.0   0.2-    240627 204  0.1-  0.4+    240628 932  0.3-  0.6-
240627 106  0.2-  0.2-    240627 204  0.1-  0.2-    240628 932  0.0   0.3-
240627 104  0.5-  0.4+    240627 204  0.1+  0.1-    240628 932  0.2-  0.3+
240627 J95  0.0   0.2-    240627 204  0.3+  0.1-    240628 932  0.2+  0.0
240627 J95  0.2-  0.1+    240628 J95  0.3-  0.1-
Ephemeris:
2024 MW                  a,e,i = 2.18, 0.60, 5                   q = 0.8754
Date    TT    R. A. (2000) Decl.     Delta      r    Elong.  Phase     V
2024 05 29    16 56 35.2 -10 11 42   0.2475  1.2553   166.2    11.1    27.5
...
2024 06 13    16 55 40.4 -09 13 57   0.1192  1.1308   164.3    14.1    25.8
...
2024 06 21    16 55 55.6 -08 56 56   0.05620 1.0689   159.1    19.9    24.2
...
2024 06 27    17 07 41.2 -08 57 18   0.01001 1.0257   156.8    23.0    20.5
2024 06 28    17 55 07.5 -09 04 15   0.0023921.0189   163.7    16.2    17.2
2024 06 29    04 36 58.4 +08 40 28   0.0054371.0120    31.2   148.6    26.2
...
2024 07 05    05 01 50.2 +08 59 10   0.05153 0.9729    30.9   147.6    30.8
...
2024 07 13    05 05 45.6 +09 18 34   0.1140  0.9277    36.8   139.0    31.2
...
2024 07 28    05 17 35.6 +10 27 56   0.2363  0.8719    47.1   121.5    30.9
M. P. C. Staff               (C) Copyright 2024 MPC           M.P.E.C. 2024-M104
    
    
More information about the Iaude
mailing list